Time,TemperatureF,DewpointF,PressureIn,WindDirection,WindDirectionDegrees,WindSpeedMPH,WindSpeedGustMPH,Humidity,HourlyPrecipIn,Conditions,Clouds,dailyrainin,SoftwareType,DateUTC
2013-05-29 00:03:00,70.0,62.0,30.09,WNW,284,0.0,0.0,76,0.00,,,0.00,,2013-05-29 04:03:00,
2013-05-29 00:13:00,70.0,62.0,30.09,WNW,284,0.0,0.0,75,0.00,,,0.00,,2013-05-29 04:13:00,
2013-05-29 00:23:00,70.0,62.0,30.09,WNW,284,0.0,0.0,75,0.00,,,0.00,,2013-05-29 04:23:00,
2013-05-29 00:33:00,69.0,61.0,30.09,WNW,284,0.0,0.0,77,0.00,,,0.00,,2013-05-29 04:33:00,
2013-05-29 00:42:00,69.0,61.0,30.09,WNW,284,0.0,0.0,77,0.00,,,0.00,,2013-05-29 04:42:00,
2013-05-29 00:52:00,69.0,61.0,30.10,WNW,284,0.0,0.0,76,0.00,,,0.00,,2013-05-29 04:52:00,
2013-05-29 01:03:00,68.0,61.0,30.10,WNW,284,0.0,0.0,78,0.00,,,0.00,,2013-05-29 05:03:00,
2013-05-29 01:12:00,68.0,61.0,30.10,WNW,284,0.0,0.0,78,0.00,,,0.00,,2013-05-29 05:12:00,
2013-05-29 01:22:00,68.0,61.0,30.10,WNW,284,0.0,0.0,79,0.00,,,0.00,,2013-05-29 05:22:00,
2013-05-29 01:33:00,67.0,61.0,30.10,WNW,284,0.0,0.0,80,0.00,,,0.00,,2013-05-29 05:33:00,
2013-05-29 01:42:00,67.0,61.0,30.10,WNW,284,0.0,0.0,80,0.00,,,0.00,,2013-05-29 05:42:00,
2013-05-29 01:52:00,67.0,61.0,30.10,WNW,284,0.0,0.0,80,0.00,,,0.00,,2013-05-29 05:52:00,
2013-05-29 02:02:00,67.0,61.0,30.10,WNW,284,0.0,0.0,81,0.00,,,0.00,,2013-05-29 06:02:00,
2013-05-29 02:12:00,67.0,61.0,30.10,WNW,284,0.0,0.0,81,0.00,,,0.00,,2013-05-29 06:12:00,
2013-05-29 02:22:00,67.0,60.0,30.09,WNW,284,0.0,0.0,79,0.00,,,0.00,,2013-05-29 06:22:00,
2013-05-29 02:32:00,67.0,60.0,30.09,West,275,0.0,0.0,79,0.00,,,0.00,,2013-05-29 06:32:00,
2013-05-29 02:42:00,67.0,60.0,30.09,West,275,0.0,0.0,79,0.00,,,0.00,,2013-05-29 06:42:00,
2013-05-29 02:52:00,66.0,60.0,30.09,West,275,0.0,0.0,80,0.00,,,0.00,,2013-05-29 06:52:00,
2013-05-29 03:01:00,66.0,60.0,30.09,West,275,0.0,0.0,80,0.00,,,0.00,,2013-05-29 07:01:00,
2013-05-29 03:11:00,66.0,60.0,30.09,West,275,0.0,0.0,80,0.00,,,0.00,,2013-05-29 07:11:00,
2013-05-29 03:22:00,65.0,59.0,30.09,West,275,0.0,0.0,81,0.00,,,0.00,,2013-05-29 07:22:00,
2013-05-29 03:34:00,65.0,59.0,30.09,West,275,0.0,0.0,82,0.00,,,0.00,,2013-05-29 07:34:00,
2013-05-29 03:42:00,65.0,59.0,30.09,West,275,0.0,0.0,82,0.00,,,0.00,,2013-05-29 07:42:00,
2013-05-29 03:52:00,64.0,59.0,30.10,West,275,0.0,0.0,83,0.00,,,0.00,,2013-05-29 07:52:00,
2013-05-29 04:02:00,64.0,59.0,30.10,West,275,0.0,0.0,83,0.00,,,0.00,,2013-05-29 08:02:00,
2013-05-29 04:11:00,64.0,59.0,30.10,West,275,0.0,0.0,83,0.00,,,0.00,,2013-05-29 08:11:00,
2013-05-29 04:22:00,64.0,59.0,30.10,West,275,0.0,0.0,84,0.00,,,0.00,,2013-05-29 08:22:00,
2013-05-29 04:32:00,64.0,59.0,30.11,West,275,0.0,0.0,85,0.00,,,0.00,,2013-05-29 08:32:00,
2013-05-29 04:42:00,64.0,59.0,30.11,West,275,0.0,0.0,85,0.00,,,0.00,,2013-05-29 08:42:00,
2013-05-29 04:52:00,63.0,58.0,30.11,West,275,0.0,0.0,85,0.00,,,0.00,,2013-05-29 08:52:00,
2013-05-29 05:01:00,63.0,58.0,30.11,West,275,0.0,0.0,85,0.00,,,0.00,,2013-05-29 09:01:00,
2013-05-29 05:11:00,63.0,58.0,30.11,West,275,0.0,0.0,85,0.00,,,0.00,,2013-05-29 09:11:00,
2013-05-29 05:21:00,63.0,59.0,30.11,West,275,0.0,0.0,86,0.00,,,0.00,,2013-05-29 09:21:00,
2013-05-29 05:33:00,62.0,58.0,30.12,West,275,0.0,0.0,86,0.00,,,0.00,,2013-05-29 09:33:00,
2013-05-29 05:42:00,62.0,58.0,30.12,West,275,0.0,0.0,86,0.00,,,0.00,,2013-05-29 09:42:00,
2013-05-29 05:52:00,62.0,58.0,30.12,West,275,0.0,0.0,87,0.00,,,0.00,,2013-05-29 09:52:00,
2013-05-29 06:03:00,62.0,58.0,30.12,West,275,0.0,0.0,87,0.00,,,0.00,,2013-05-29 10:03:00,
2013-05-29 06:12:00,62.0,58.0,30.12,West,275,0.0,0.0,87,0.00,,,0.00,,2013-05-29 10:12:00,
2013-05-29 06:22:00,62.0,58.0,30.12,West,275,0.0,0.0,87,0.00,,,0.00,,2013-05-29 10:22:00,
2013-05-29 06:33:00,62.0,58.0,30.13,West,275,0.0,0.0,87,0.00,,,0.00,,2013-05-29 10:33:00,
2013-05-29 06:42:00,62.0,58.0,30.13,West,275,0.0,0.0,87,0.00,,,0.00,,2013-05-29 10:42:00,
2013-05-29 06:52:00,62.0,58.0,30.13,West,275,0.0,0.0,88,0.00,,,0.00,,2013-05-29 10:52:00,
2013-05-29 07:02:00,62.0,58.0,30.14,West,275,0.0,0.0,88,0.00,,,0.00,,2013-05-29 11:02:00,
2013-05-29 07:12:00,62.0,58.0,30.14,West,275,0.0,0.0,88,0.00,,,0.00,,2013-05-29 11:12:00,
2013-05-29 07:22:00,62.0,58.0,30.14,West,275,0.0,0.0,88,0.00,,,0.00,,2013-05-29 11:22:00,
2013-05-29 07:32:00,63.0,59.0,30.14,West,275,0.0,0.0,88,0.00,,,0.00,,2013-05-29 11:32:00,
2013-05-29 07:42:00,63.0,59.0,30.14,West,275,0.0,0.0,88,0.00,,,0.00,,2013-05-29 11:42:00,
2013-05-29 07:52:00,64.0,60.0,30.14,West,275,0.0,0.0,87,0.00,,,0.00,,2013-05-29 11:52:00,
2013-05-29 08:01:00,64.0,60.0,30.14,West,275,0.0,0.0,86,0.00,,,0.00,,2013-05-29 12:01:00,
2013-05-29 08:11:00,64.0,60.0,30.14,West,275,0.0,0.0,86,0.00,,,0.00,,2013-05-29 12:11:00,
2013-05-29 08:22:00,65.0,60.0,30.14,South,179,0.0,0.0,85,0.00,,,0.00,,2013-05-29 12:22:00,
2013-05-29 08:32:00,66.0,61.0,30.14,South,179,0.0,0.0,84,0.00,,,0.00,,2013-05-29 12:32:00,
2013-05-29 08:42:00,66.0,61.0,30.14,South,179,0.0,0.0,84,0.00,,,0.00,,2013-05-29 12:42:00,
2013-05-29 08:52:00,67.0,61.0,30.14,South,179,0.0,0.0,81,0.00,,,0.00,,2013-05-29 12:52:00,
2013-05-29 09:02:00,68.0,61.0,30.14,SSW,208,0.0,0.0,79,0.00,,,0.00,,2013-05-29 13:02:00,
2013-05-29 09:11:00,68.0,61.0,30.14,SSW,208,0.0,0.0,79,0.00,,,0.00,,2013-05-29 13:11:00,
2013-05-29 09:22:00,69.0,61.0,30.15,SSE,151,0.0,0.0,76,0.00,,,0.00,,2013-05-29 13:22:00,
2013-05-29 09:32:00,70.0,62.0,30.15,WNW,302,0.0,0.0,75,0.00,,,0.00,,2013-05-29 13:32:00,
2013-05-29 09:42:00,70.0,62.0,30.15,WNW,302,0.0,0.0,75,0.00,,,0.00,,2013-05-29 13:42:00,
2013-05-29 09:53:00,71.0,62.0,30.15,WSW,240,0.0,0.0,72,0.00,,,0.00,,2013-05-29 13:53:00,
2013-05-29 10:02:00,72.0,61.0,30.15,SSW,209,0.0,0.0,69,0.00,,,0.00,,2013-05-29 14:02:00,
2013-05-29 10:11:00,72.0,61.0,30.15,SSW,209,0.0,0.0,69,0.00,,,0.00,,2013-05-29 14:11:00,
2013-05-29 10:21:00,73.0,61.0,30.14,South,180,0.0,0.0,66,0.00,,,0.00,,2013-05-29 14:21:00,
2013-05-29 10:32:00,74.0,61.0,30.14,SSW,200,0.0,0.0,64,0.00,,,0.00,,2013-05-29 14:32:00,
2013-05-29 10:42:00,74.0,61.0,30.14,SSW,200,0.0,0.0,64,0.00,,,0.00,,2013-05-29 14:42:00,
2013-05-29 10:52:00,75.0,60.0,30.15,WSW,237,0.0,0.0,60,0.00,,,0.00,,2013-05-29 14:52:00,
2013-05-29 11:01:00,76.0,60.0,30.15,WSW,247,0.0,0.0,57,0.00,,,0.00,,2013-05-29 15:01:00,
2013-05-29 11:11:00,76.0,60.0,30.15,WSW,247,0.0,0.0,57,0.00,,,0.00,,2013-05-29 15:11:00,
2013-05-29 11:21:00,76.0,60.0,30.15,West,267,0.0,0.0,57,0.00,,,0.00,,2013-05-29 15:21:00,
2013-05-29 11:33:00,77.0,60.0,30.15,WSW,250,0.0,0.0,55,0.00,,,0.00,,2013-05-29 15:33:00,
2013-05-29 11:42:00,77.0,60.0,30.15,WSW,250,0.0,0.0,55,0.00,,,0.00,,2013-05-29 15:42:00,
2013-05-29 11:53:00,77.0,60.0,30.15,East,88,0.0,0.0,55,0.00,,,0.00,,2013-05-29 15:53:00,
2013-05-29 12:03:00,78.0,61.0,30.14,WNW,297,0.0,0.0,56,0.00,,,0.00,,2013-05-29 16:03:00,
2013-05-29 12:13:00,78.0,61.0,30.14,WNW,297,0.0,0.0,56,0.00,,,0.00,,2013-05-29 16:13:00,
2013-05-29 12:22:00,80.0,59.0,30.15,WNW,287,0.0,3.0,48,0.00,,,0.00,,2013-05-29 16:22:00,
2013-05-29 12:33:00,81.0,61.0,30.14,SW,217,0.0,0.0,51,0.00,,,0.00,,2013-05-29 16:33:00,
2013-05-29 12:42:00,81.0,61.0,30.14,SW,217,0.0,0.0,51,0.00,,,0.00,,2013-05-29 16:42:00,
2013-05-29 12:52:00,81.0,61.0,30.14,West,273,0.0,1.0,50,0.00,,,0.00,,2013-05-29 16:52:00,
2013-05-29 13:02:00,80.0,60.0,30.14,NW,323,0.0,3.0,51,0.00,,,0.00,,2013-05-29 17:02:00,
2013-05-29 13:12:00,80.0,60.0,30.14,NW,323,0.0,3.0,51,0.00,,,0.00,,2013-05-29 17:12:00,
2013-05-29 13:22:00,81.0,59.0,30.14,WSW,253,0.0,3.0,48,0.00,,,0.00,,2013-05-29 17:22:00,
2013-05-29 13:32:00,81.0,59.0,30.13,East,92,0.0,3.0,47,0.00,,,0.00,,2013-05-29 17:32:00,
2013-05-29 13:42:00,81.0,59.0,30.13,East,92,0.0,3.0,47,0.00,,,0.00,,2013-05-29 17:42:00,
2013-05-29 13:52:00,81.0,61.0,30.12,WNW,288,1.0,4.0,51,0.00,,,0.00,,2013-05-29 17:52:00,
2013-05-29 14:01:00,82.0,61.0,30.12,South,189,0.0,2.0,50,0.00,,,0.00,,2013-05-29 18:01:00,
2013-05-29 14:13:00,82.0,61.0,30.12,South,189,0.0,2.0,50,0.00,,,0.00,,2013-05-29 18:13:00,
2013-05-29 14:22:00,82.0,62.0,30.11,NW,317,0.0,3.0,51,0.00,,,0.00,,2013-05-29 18:22:00,
2013-05-29 14:32:00,83.0,61.0,30.11,SW,231,0.0,3.0,48,0.00,,,0.00,,2013-05-29 18:32:00,
2013-05-29 14:42:00,83.0,61.0,30.11,SW,231,0.0,3.0,48,0.00,,,0.00,,2013-05-29 18:42:00,
2013-05-29 14:52:00,82.0,60.0,30.11,WNW,286,0.0,8.0,47,0.00,,,0.00,,2013-05-29 18:52:00,
2013-05-29 15:02:00,82.0,61.0,30.10,NNE,26,1.0,3.0,49,0.00,,,0.00,,2013-05-29 19:02:00,
2013-05-29 15:11:00,83.0,62.0,30.10,NW,321,0.0,2.0,49,0.00,,,0.00,,2013-05-29 19:11:00,
2013-05-29 15:22:00,83.0,62.0,30.10,NW,321,0.0,2.0,49,0.00,,,0.00,,2013-05-29 19:22:00,
2013-05-29 15:32:00,82.0,63.0,30.10,NNE,14,0.0,3.0,53,0.00,,,0.00,,2013-05-29 19:32:00,
2013-05-29 15:44:00,82.0,63.0,30.10,NNE,14,0.0,3.0,53,0.00,,,0.00,,2013-05-29 19:44:00,
2013-05-29 15:53:00,83.0,61.0,30.10,West,261,0.0,3.0,47,0.00,,,0.00,,2013-05-29 19:53:00,
2013-05-29 16:03:00,84.0,61.0,30.10,West,279,1.0,3.0,46,0.00,,,0.00,,2013-05-29 20:03:00,
2013-05-29 16:11:00,84.0,61.0,30.10,West,279,1.0,3.0,46,0.00,,,0.00,,2013-05-29 20:11:00,
2013-05-29 16:23:00,82.0,60.0,30.10,NE,44,1.0,4.0,47,0.00,,,0.00,,2013-05-29 20:23:00,
2013-05-29 16:33:00,83.0,61.0,30.09,NW,314,1.0,5.0,47,0.00,,,0.00,,2013-05-29 20:33:00,
2013-05-29 16:42:00,83.0,61.0,30.09,NW,314,1.0,5.0,47,0.00,,,0.00,,2013-05-29 20:42:00,
2013-05-29 16:52:00,83.0,60.0,30.09,WNW,293,0.0,2.0,46,0.00,,,0.00,,2013-05-29 20:52:00,
2013-05-29 17:02:00,82.0,60.0,30.09,NNW,335,0.0,2.0,48,0.00,,,0.00,,2013-05-29 21:02:00,
2013-05-29 17:12:00,82.0,60.0,30.09,NNW,335,0.0,2.0,48,0.00,,,0.00,,2013-05-29 21:12:00,
2013-05-29 17:22:00,83.0,61.0,30.09,NW,315,0.0,2.0,47,0.00,,,0.00,,2013-05-29 21:22:00,
2013-05-29 17:33:00,82.0,63.0,30.09,West,266,0.0,2.0,53,0.00,,,0.00,,2013-05-29 21:33:00,
2013-05-29 17:43:00,82.0,63.0,30.09,West,266,0.0,2.0,53,0.00,,,0.00,,2013-05-29 21:43:00,
2013-05-29 17:53:00,83.0,61.0,30.09,NE,49,0.0,2.0,47,0.00,,,0.00,,2013-05-29 21:53:00,
2013-05-29 18:03:00,82.0,61.0,30.08,NE,39,0.0,3.0,49,0.00,,,0.00,,2013-05-29 22:03:00,
2013-05-29 18:12:00,82.0,61.0,30.08,NE,39,0.0,3.0,49,0.00,,,0.00,,2013-05-29 22:12:00,
2013-05-29 18:23:00,81.0,61.0,30.09,West,275,0.0,2.0,50,0.00,,,0.00,,2013-05-29 22:23:00,
2013-05-29 18:34:00,81.0,60.0,30.09,West,261,0.0,2.0,49,0.00,,,0.00,,2013-05-29 22:34:00,
2013-05-29 18:42:00,81.0,60.0,30.09,West,261,0.0,2.0,49,0.00,,,0.00,,2013-05-29 22:42:00,
2013-05-29 18:53:00,80.0,60.0,30.08,WSW,255,0.0,2.0,51,0.00,,,0.00,,2013-05-29 22:53:00,
2013-05-29 19:02:00,79.0,60.0,30.08,WSW,256,0.0,1.0,53,0.00,,,0.00,,2013-05-29 23:02:00,
2013-05-29 19:12:00,79.0,60.0,30.08,WSW,256,0.0,1.0,53,0.00,,,0.00,,2013-05-29 23:12:00,
2013-05-29 19:22:00,79.0,61.0,30.07,WSW,256,0.0,1.0,54,0.00,,,0.00,,2013-05-29 23:22:00,
2013-05-29 19:33:00,78.0,61.0,30.07,WSW,256,0.0,1.0,56,0.00,,,0.00,,2013-05-29 23:33:00,
2013-05-29 19:42:00,78.0,62.0,30.07,WSW,256,0.0,0.0,59,0.00,,,0.00,,2013-05-29 23:42:00,
2013-05-29 19:53:00,78.0,62.0,30.07,WSW,256,0.0,0.0,59,0.00,,,0.00,,2013-05-29 23:53:00,
2013-05-29 20:02:00,77.0,62.0,30.07,WSW,256,0.0,1.0,59,0.00,,,0.00,,2013-05-30 00:02:00,
2013-05-29 20:12:00,77.0,62.0,30.07,WSW,256,0.0,1.0,59,0.00,,,0.00,,2013-05-30 00:12:00,
2013-05-29 20:22:00,77.0,62.0,30.07,WSW,256,0.0,1.0,59,0.00,,,0.00,,2013-05-30 00:22:00,
2013-05-29 20:32:00,76.0,62.0,30.07,WSW,256,0.0,0.0,63,0.00,,,0.00,,2013-05-30 00:32:00,
2013-05-29 20:42:00,76.0,62.0,30.07,WSW,256,0.0,0.0,63,0.00,,,0.00,,2013-05-30 00:42:00,
2013-05-29 20:52:00,75.0,63.0,30.07,WSW,256,0.0,0.0,66,0.00,,,0.00,,2013-05-30 00:52:00,
2013-05-29 21:02:00,73.0,62.0,30.07,WSW,256,0.0,0.0,69,0.00,,,0.00,,2013-05-30 01:02:00,
2013-05-29 21:11:00,73.0,62.0,30.07,WSW,256,0.0,0.0,69,0.00,,,0.00,,2013-05-30 01:11:00,
2013-05-29 21:22:00,72.0,62.0,30.08,WSW,256,0.0,0.0,72,0.00,,,0.00,,2013-05-30 01:22:00,
2013-05-29 21:32:00,71.0,62.0,30.08,WSW,256,0.0,0.0,74,0.00,,,0.00,,2013-05-30 01:32:00,
2013-05-29 21:42:00,71.0,62.0,30.08,WSW,256,0.0,0.0,74,0.00,,,0.00,,2013-05-30 01:42:00,
2013-05-29 21:52:00,70.0,62.0,30.08,WSW,256,0.0,0.0,77,0.00,,,0.00,,2013-05-30 01:52:00,
2013-05-29 22:02:00,70.0,63.0,30.09,WSW,256,0.0,0.0,78,0.00,,,0.00,,2013-05-30 02:02:00,
2013-05-29 22:11:00,70.0,63.0,30.09,WSW,256,0.0,0.0,78,0.00,,,0.00,,2013-05-30 02:11:00,
2013-05-29 22:21:00,69.0,63.0,30.09,WSW,256,0.0,0.0,80,0.00,,,0.00,,2013-05-30 02:21:00,
2013-05-29 22:32:00,69.0,63.0,30.10,WSW,256,0.0,0.0,80,0.00,,,0.00,,2013-05-30 02:32:00,
2013-05-29 22:42:00,69.0,63.0,30.10,WSW,256,0.0,0.0,80,0.00,,,0.00,,2013-05-30 02:42:00,
2013-05-29 22:52:00,69.0,63.0,30.10,WSW,256,0.0,0.0,80,0.00,,,0.00,,2013-05-30 02:52:00,
2013-05-29 23:02:00,68.0,62.0,30.11,WSW,256,0.0,0.0,82,0.00,,,0.00,,2013-05-30 03:02:00,
2013-05-29 23:11:00,67.0,61.0,30.11,WSW,256,0.0,1.0,82,0.00,,,0.00,,2013-05-30 03:11:00,
2013-05-29 23:21:00,67.0,61.0,30.11,WSW,256,0.0,1.0,82,0.00,,,0.00,,2013-05-30 03:21:00,
2013-05-29 23:33:00,67.0,61.0,30.12,WSW,256,0.0,0.0,82,0.00,,,0.00,,2013-05-30 03:33:00,
2013-05-29 23:43:00,67.0,61.0,30.12,WSW,256,0.0,0.0,82,0.00,,,0.00,,2013-05-30 03:43:00,
2013-05-29 23:53:00,67.0,62.0,30.12,WSW,256,0.0,0.0,83,0.00,,,0.00,,2013-05-30 03:53:00,